Terug naar catalogus

ONEWEB-0038

ActiefCommunicatiePO
NORAD 45145·PAYLOAD·🇬🇧 United Kingdom

Gelanceerd Feb 6, 2020 vanaf Baikonur Cosmodrome

Loading…

Volgende Passages (komende 24 uur)

TLE

VersSource: CelesTrak SupGP

Epoch: Sep 14, 2026, 23:25 UTC

1 45145C 20008Q   26257.97621946 -.00000895  00000+0 -25277-2 0  2570
2 45145  87.8990   3.2367 0002938  70.5665 318.0276 13.11420437    18

Volg ONEWEB-0038 in realtime met AllMySat

Download on the App Store